Regional Weather Roundup
Issued by NWS

Home | Current Version | Previous Version | Text Only | Print | Product List | Glossary Off
Versions: 1 2 3 4 5 6 7 8 9 10 11 12 13 14 15 16 17 18 19 20 21 22 23 24 25 26 27 28 29 30 31 32 33 34 35 36 37 38 39 40 41 42 43 44 45 46 47 48 49 50

000
ASUS43 KLOT 252206
RWRIL

ILLINOIS REGIONAL WEATHER ROUNDUP
NATIONAL WEATHER SERVICE CHICAGO/ROMEOVILLE IL
500 PM CDT FRI JUL 25 2014

NOTE: "FAIR" INDICATES FEW OR NO CLOUDS BELOW 12,000 FEET WITH NO
SIGNIFICANT WEATHER AND/OR OBSTRUCTIONS TO VISIBILITY.

* THESE STATIONS ARE NOT UNDER NWS QUALITY CONTROL. THEY ALSO MAY NOT
  REPORT WEATHER SUCH AS PRECIPITATION OR FOG.

ILZ001-002-007-009-015-016-024-252300-
NORTHWEST ILLINOIS

CITY           SKY/WX    TMP DP  RH WIND       PRES   REMARKS
MOLINE         CLOUDY    75  63  66 S6        29.88F
STERLING*      CLOUDY    68  61  77 S6        29.93S
SAVANNA*       CLOUDY    70  62  73 SE8       29.91R
$$

ILZ003-004-008-010-011-017-018-252300-
NORTH CENTRAL ILLINOIS

CITY           SKY/WX    TMP DP  RH WIND       PRES   REMARKS
ROCKFORD       CLOUDY    71  60  68 SE12      29.94F
FREEPORT*      CLOUDY    67  62  83 SE8       29.94S
ROCHELLE*      MOSUNNY   72  60  67 S8        29.93F
DE KALB*       PTSUNNY   69  60  72 S9        29.96S
PERU*          CLOUDY    68  59  74 SE9       29.94S
$$

ILZ005-006-012>014-019>023-252300-
NORTHEAST ILLINOIS

CITY           SKY/WX    TMP DP  RH WIND       PRES   REMARKS
CHICAGO-OHARE  CLOUDY    73  57  57 SW8       29.94S
CHICAGO-MIDWAY PTSUNNY   74  59  59 SW10      29.95S
AURORA         CLOUDY    71  59  65 S7        29.95F
LANSING*       CLOUDY    72  58  60 SW8       29.95F
JOLIET*        PTSUNNY   72  58  60 SW6       29.95F
WAUKEGAN       CLOUDY    72  58  61 S9        29.93S
DUPAGE AIRPORT CLOUDY    71  60  68 SW8       29.95F
KANKAKEE*      CLOUDY    73  60  63 SW5       29.96S
WHEELING       CLOUDY    75  57  53 SW12      29.96R
MORRIS*        PTSUNNY   73  60  63 SW8       29.94F
ROMEOVILLE*    CLOUDY    71  58  63 SW6       29.95F
NORTHERLY ISL    N/A     73  57  57 SW5         N/A
$$

LMZ740>746-252300-
SOUTHERN LAKE MICHIGAN

STATION/POSITION SKY/WX   TEMP    WIND        PRES    VSBY  WAVE
                          AIR SEA DIR/SP/G                  HT/PER
                          (F)     (DEG/KT/KT) (MB)    (MI)  (FT/S)
SOUTHERN BUOY              64 62  170/  8/  8 1014.0F         1/ 4
WAUKEGAN HARBOR            72     240/  9/ 11   N/A
HARRISON CRIB              71     210/ 14/ 16   N/A
BURNHAM HARBOR             73     200/  8/ 12   N/A
CALUMET HARBOR             71     210/  6/ 10 1012.9F
MICHIGAN CITY              71     190/  9/ 10   N/A
MICHIGAN CITY 6N           70 68  190/  6/ 10   N/A           1/ 3
ST. JOSEPH                 67 65  170/  4/  6   N/A           2/ 3
$$

ILZ025>027-034>036-040-047-049-050-058-095>099-252300-
WEST-CENTRAL ILLINOIS

CITY           SKY/WX    TMP DP  RH WIND       PRES   REMARKS
QUINCY         SUNNY     76  62  62 S16G29    29.84F
GALESBURG*     CLOUDY    75  63  66 S7        29.89S
MACOMB*        SUNNY     75  64  68 SW9       29.89R
JACKSONVILLE*  SUNNY     76  61  59 S17       29.86F
PITTSFIELD*    SUNNY     76  60  57 S17G28    29.87S
$$

ILZ028>032-037-038-041>044-048-051>054-059>061-252300-
CENTRAL ILLINOIS

CITY           SKY/WX    TMP DP  RH WIND       PRES   REMARKS
PONTIAC        CLOUDY    72  61  68 S8        29.94F
DECATUR        MOSUNNY   72  62  71 S12       29.91R
PEORIA         SUNNY     74  61  63 S8        29.91R
LACON*         CLOUDY    69  61  76 SE3       29.92R
LINCOLN*       MOSUNNY   73  62  68 S9        29.87R
SPRINGFIELD    MOSUNNY   73  62  68 S12       29.87F
TAYLORVILLE    PTSUNNY   70  61  73 S14       29.88F
$$

ILZ033-039-045-046-055>057-062-063-252300-
EAST-CENTRAL ILLINOIS

CITY           SKY/WX    TMP DP  RH WIND       PRES   REMARKS
CHAMPAIGN      MOSUNNY   72  60  66 S8        29.95F
DANVILLE*      PTSUNNY   72  61  67 SW12      29.94S
RANTOUL*       MOSUNNY   73  58  57 S9        29.96S
MATTOON        CLOUDY    70  61  73 S6        29.92R
PARIS*         CLOUDY    73  62  69 SE8       29.96S
$$

ILZ079-100>102-252300-
SOUTHWEST ILLINOIS

CITY           SKY/WX    TMP DP  RH WIND       PRES   REMARKS
ALTON          SUNNY     73  64  73 S12G17    29.92F
BELLEVILLE     CLOUDY    75  65  71 VRB6      29.91F
CAHOKIA*       PTSUNNY   77  62  59 S15G24    29.92F
SPARTA*        CLOUDY    73  61  64 S7        29.96F
$$

ILZ064>066-069>071-074>076-080>082-084>086-088>090-092>094-252300-
SOUTH-CENTRAL ILLINOIS

CITY           SKY/WX    TMP DP  RH WIND       PRES   REMARKS
CARBONDALE     CLOUDY    76  62  62 E7G17     29.96F
CAIRO*         CLOUDY    80  63  54 NE6       30.02F HX  82
EFFINGHAM*     RAIN      71  59  64 S12       29.87F
MARION         PTSUNNY   75  63  64 S14       29.94F
MT. VERNON     CLOUDY    70  61  73 S16G23    29.87F
CENTRALIA*     CLOUDY    73  60  63 S15G24    29.86F
SALEM*         CLOUDY    73  63  71 SE8       29.87R
METROPOLIS*    CLOUDY    78  56  46 NE3       30.01F
$$

ILZ067-068-072-073-078-083-087-091-252300-
SOUTHEAST ILLINOIS

CITY           SKY/WX    TMP DP  RH WIND       PRES   REMARKS
LAWRENCEVILLE  CLOUDY    73  61  65 S14       29.90F
FLORA*         CLOUDY    70  61  74 S15       29.89F
FAIRFIELD*     CLOUDY    72  64  78 SE5       29.90F
HARRISBURG*    CLOUDY    73  65  75 S9        29.97F
ROBINSON*      CLOUDY    74  62  65 S10       29.94S
CARMI*         CLOUDY    72  66  83 E7        29.92F
$$

ABBREVIATIONS USED IN REMARKS
   TC - TEMPERATURE IN CELSIUS
  WCI - WIND CHILL INDEX
   HX - HEAT INDEX
  VSB - VISIBILITY
$$



USA.gov is the U.S. government's official web portal to all federal, state and local government web resources and services.